Temperature
7 7 7 7 7 8 8 8 8 8 9 9 9 9 9 9 9 9 9 9 9 9 9 9 9 9 9 9 9 9 9 9 10 10 10 10 10 10 10 11 11 11 11
6 6 6 7 7 7 7 7 7 8 8 8 8 8 8 8 8 8 9 9 9 9 9 9 9 9 8 8 8 9 9 9 9 9 9 9 9 10 10 10 10 10 10
5 5 6 6 6 6 6 7 7 7 7 7 7 7 8 8 8 8 8 8 8 8 8 8 8 8 8 8 8 8 8 8 8 8 9 9 9 9 9 9 9 9 10
5 5 5 5 5 6 6 6 6 7 7 7 7 7 7 7 7 7 7 7 7 8 8 8 8 8 8 8 8 8 8 8 8 8 8 8 8 8 8 8 9 9 9
4 4 4 4 5 5 5 5 5 6 6 6 6 6 6 6 6 6 7 7 7 7 7 7 7 7 7 7 7 7 7 7 7 7 7 7 7 8 8 8 8 8 8
4 4 4 4 4 4 4 5 5 5 5 5 5 6 6 6 6 6 6 6 6 6 6 6 6 6 6 6 6 6 6 6 6 7 7 7 7 7 7 7 7 7 8
3 3 3 3 4 4 4 4 4 4 4 4 4 5 5 5 5 5 5 5 5 5 5 5 6 6 6 6 6 6 6 6 6 6 6 6 6 6 6 6 7 7 7
3 3 3 3 3 3 3 3 3 3 3 3 3 3 3 3 4 4 4 4 4 4 4 5 5 5 5 5 5 5 5 5 5 5 5 5 5 5 6 6 6 6 6
2 2 2 2 2 2 2 2 2 2 2 2 2 2 2 2 2 3 3 3 3 3 3 4 4 4 4 4 4 4 4 4 4 4 4 4 5 5 5 5 5 5 5
1 1 1 1 1 1 1 2 1 1 1 1 1 1 1 0 0 1 2 2 2 2 3 3 3 3 3 3 3 3 3 3 3 3 4 4 4 4 4 4 4 5 5
1 1 1 1 1 1 1 1 1 1 1 0 0 0 0 0 -0 -0 -0 1 2 2 2 2 2 2 2 2 2 2 2 2 2 3 3 3 3 3 3 3 4 4 4
1 0 0 0 0 -0 -0 -0 -0 -0 -0 -0 -1 -1 -1 -1 -1 -1 -1 -1 -0 1 1 1 1 1 1 1 1 1 1 2 2 2 2 2 2 2 2 2 3 3 3
0 -0 -0 -0 -0 -1 -1 -1 -1 -1 -1 -1 -1 -1 -1 -2 -2 -2 -2 -2 -2 -1 -0 0 0 -0 -0 0 0 0 1 1 1 1 1 1 1 1 2 2 2 2 2
-1 -1 -1 -1 -1 -1 -1 -1 -1 -1 -2 -2 -2 -2 -2 -2 -2 -2 -2 -3 -3 -3 -2 -1 -1 -1 -1 -1 -1 -1 -0 -0 0 0 0 0 1 1 1 1 1 1 1
-1 -2 -2 -2 -2 -2 -2 -2 -2 -2 -2 -2 -2 -2 -3 -3 -3 -3 -3 -3 -4 -4 -4 -3 -2 -2 -2 -2 -2 -2 -1 -1 -1 -1 -0 -0 -0 0 0 0 0 0 0
-2 -2 -2 -2 -3 -2 -3 -3 -3 -3 -3 -3 -3 -3 -3 -3 -3 -4 -4 -4 -4 -4 -4 -4 -3 -3 -3 -3 -2 -2 -2 -2 -2 -1 -1 -1 -1 -1 -1 -1 -1 -0 -0
-3 -3 -3 -3 -3 -3 -3 -3 -3 -4 -4 -4 -4 -4 -4 -4 -4 -4 -4 -4 -4 -5 -5 -4 -4 -3 -3 -3 -3 -3 -3 -3 -2 -2 -2 -2 -2 -2 -2 -1 -1 -1 -1
-3 -4 -4 -4 -4 -4 -4 -4 -4 -4 -4 -4 -5 -5 -5 -5 -5 -5 -5 -5 -5 -5 -5 -5 -4 -4 -4 -4 -4 -4 -3 -3 -3 -3 -3 -3 -2 -2 -2 -2 -2 -2 -2
-4 -4 -4 -4 -4 -5 -5 -5 -5 -5 -5 -5 -5 -5 -5 -5 -5 -5 -5 -5 -5 -5 -5 -6 -5 -5 -5 -5 -5 -4 -4 -4 -4 -3 -3 -3 -3 -3 -3 -3 -3 -2 -2
-4 -5 -5 -5 -5 -5 -5 -5 -6 -6 -6 -6 -6 -6 -6 -6 -6 -6 -6 -6 -6 -6 -6 -6 -6 -6 -6 -6 -6 -5 -5 -5 -4 -4 -4 -4 -4 -4 -3 -3 -3 -3 -3
-5 -5 -5 -6 -6 -6 -6 -6 -7 -7 -7 -7 -7 -7 -7 -7 -7 -7 -7 -7 -6 -6 -6 -6 -6 -6 -6 -6 -6 -6 -6 -6 -5 -5 -5 -4 -4 -4 -4 -3 -3 -3 -3
-6 -6 -6 -6 -6 -6 -6 -7 -7 -7 -7 -7 -7 -7 -7 -7 -7 -7 -7 -7 -7 -7 -7 -7 -7 -7 -7 -7 -7 -7 -7 -7 -6 -6 -6 -5 -5 -5 -4 -4 -4 -4 -4
-6 -6 -6 -7 -7 -7 -7 -7 -8 -8 -8 -8 -8 -8 -8 -8 -8 -8 -8 -7 -7 -7 -7 -7 -7 -7 -7 -7 -7 -7 -7 -7 -7 -7 -7 -6 -6 -5 -5 -5 -5 -4 -4
-7 -7 -7 -7 -7 -7 -8 -8 -8 -8 -8 -8 -8 -8 -8 -8 -8 -8 -8 -8 -8 -8 -8 -8 -8 -8 -7 -7 -7 -7 -7 -7 -7 -7 -7 -7 -6 -6 -6 -5 -5 -5 -5
-7 -8 -8 -8 -8 -8 -8 -8 -8 -9 -9 -9 -8 -9 -9 -9 -9 -9 -9 -9 -8 -8 -8 -8 -8 -8 -8 -8 -8 -8 -8 -8 -8 -7 -7 -8 -7 -7 -6 -6 -5 -5 -5
-8 -8 -8 -8 -8 -8 -9 -9 -9 -9 -9 -9 -9 -9 -9 -9 -9 -9 -9 -9 -9 -9 -9 -8 -8 -8 -8 -8 -8 -8 -8 -9 -9 -8 -8 -8 -8 -8 -8 -6 -6 -6 -6
Wind_Speed
7 7 8 8 9 9 8 8 8 8 8 8 8 8 8 8 8 8 8 9 8 7 7 8 8 8 7 7 7 8 8 8 8 8 8 7 7 6 5 2 2 1 2
7 7 7 7 8 8 8 8 7 6 6 6 6 7 7 7 7 8 8 9 9 8 8 7 7 7 7 7 7 7 7 7 7 7 7 7 6 6 6 4 4 2 1
7 7 6 6 7 7 7 8 7 7 6 5 5 6 6 6 7 7 8 8 9 8 9 8 7 7 7 6 7 7 6 6 6 6 6 6 7 6 6 5 5 5 4
7 7 6 5 6 7 7 6 5 3 4 4 3 3 5 5 6 6 7 8 9 8 8 9 8 8 7 7 6 6 6 6 6 5 6 6 6 5 5 5 5 5 4
7 7 6 6 7 6 6 5 4 2 3 4 3 2 3 3 4 6 7 8 9 9 8 8 9 8 8 7 7 6 5 5 5 5 5 5 5 5 5 5 4 4 4
7 7 6 6 7 5 5 4 3 3 2 2 2 2 2 2 3 4 5 7 8 8 8 8 8 7 8 8 7 7 6 5 4 4 4 5 5 5 4 4 4 4 4
7 7 6 6 6 5 4 4 3 4 3 3 2 2 2 2 2 2 4 5 6 8 9 8 7 7 6 7 7 7 6 5 5 4 4 5 5 5 5 5 5 5 5
6 6 6 5 5 4 4 4 3 2 3 4 2 1 2 2 2 2 2 3 4 6 7 8 8 7 7 6 7 7 7 6 5 5 5 5 5 6 6 6 6 6 5
6 5 5 5 5 4 3 3 3 3 2 3 3 1 1 1 3 2 2 2 3 3 5 6 7 7 7 6 6 6 7 7 6 6 6 6 6 6 7 7 7 7 7
5 5 5 5 5 4 3 3 3 2 1 2 2 2 1 1 1 3 2 2 4 3 3 5 6 6 7 7 6 7 7 7 6 6 7 7 7 8 8 9 9 9 8
4 4 4 4 4 4 3 3 3 2 1 1 1 1 1 1 1 1 3 3 4 3 3 4 4 5 7 6 7 8 7 7 7 8 8 8 9 9 9 9 10 10 10
3 4 4 4 4 3 3 3 2 1 1 0 0 0 1 1 1 1 3 4 5 4 4 3 3 5 6 6 8 9 9 9 9 9 10 10 10 10 10 11 11 11 11
1 2 3 3 3 3 3 3 2 1 1 1 1 1 1 2 2 3 4 4 5 4 3 2 3 4 4 7 8 10 9 10 11 11 11 11 11 11 11 12 12 12 12
1 1 2 2 2 2 3 2 2 2 1 1 2 2 2 2 2 3 3 4 5 4 3 3 2 3 4 7 9 10 10 12 12 13 13 13 12 12 12 13 13 13 13
0 1 1 2 2 2 2 2 1 1 1 1 2 3 3 3 3 3 4 4 4 5 5 3 2 2 6 8 10 10 10 12 13 14 14 14 13 13 13 14 14 14 14
0 0 1 1 2 2 2 1 2 2 1 2 2 2 3 3 4 4 4 4 4 5 6 4 4 4 7 9 11 11 12 13 14 14 14 14 14 13 13 14 14 14 14
0 1 1 1 2 2 2 1 2 2 2 2 3 3 4 4 4 4 4 4 5 5 8 7 5 5 6 7 10 11 11 11 12 14 15 15 15 14 14 14 15 15 15
1 1 1 1 2 2 2 2 3 3 3 3 4 4 5 4 5 4 4 5 6 6 7 9 7 5 6 6 8 8 10 10 11 14 15 15 15 15 15 15 15 15 15
1 1 1 2 2 3 3 3 3 3 3 4 4 5 5 5 6 5 5 6 6 6 6 7 8 6 5 6 6 7 8 9 11 13 14 14 14 15 15 15 15 16 16
1 1 2 3 3 3 4 4 4 4 4 5 5 5 5 5 6 6 6 7 7 7 6 6 7 6 6 5 5 6 7 6 7 10 12 13 15 16 16 16 17 17 17
1 1 2 3 3 3 4 4 4 4 5 5 5 6 6 8 9 8 7 6 6 6 6 6 7 7 6 5 6 6 8 8 7 7 7 8 9 10 12 15 16 17 18
1 1 2 3 4 4 7 8 6 4 4 5 6 6 7 8 10 12 13 13 11 8 7 7 7 8 8 7 7 7 8 9 8 3 5 8 7 8 10 11 16 18 19
2 2 3 3 4 6 9 9 9 5 4 4 5 5 6 7 9 7 11 13 12 14 13 9 9 9 9 8 8 9 9 9 10 6 6 10 7 9 10 13 18 19 20
2 2 3 4 4 6 9 10 10 5 4 5 5 5 6 6 8 9 8 8 8 9 11 9 8 9 9 9 9 10 10 9 9 7 7 9 8 9 10 11 17 18 19
2 2 3 3 4 6 9 10 10 4 4 5 6 6 6 6 12 13 9 8 9 9 12 14 14 14 15 15 12 7 7 7 9 8 5 6 7 8 8 8 12 16 16
2 3 4 4 4 6 9 10 10 4 5 5 5 6 9 10 13 14 8 7 9 9 9 9 9 10 10 11 13 8 7 8 8 7 4 5 6 6 6 6 6 9 11
Wind_Direction
47 44 41 38 36 37 38 36 36 35 39 41 42 43 39 35 34 35 29 30 39 46 53 55 52 54 58 60 59 55 55 56 54 53 53 54 52 48 46 50 55 65 64
56 48 41 36 32 33 37 38 33 36 36 39 39 40 39 37 37 39 35 31 37 47 51 52 48 47 49 50 49 48 47 47 47 47 48 45 41 40 37 45 38 32 35
57 53 46 35 28 31 37 41 34 41 39 36 31 33 40 42 42 42 40 38 38 44 47 45 43 40 38 39 39 38 38 36 38 40 40 37 37 36 37 39 35 30 27
55 55 48 33 28 34 37 38 28 35 32 24 18 18 30 39 39 43 48 45 42 43 44 44 44 39 33 31 29 28 29 28 28 30 30 26 25 24 20 23 25 19 13
51 55 50 35 32 38 36 32 24 36 32 19 11 10 17 26 29 42 48 46 41 40 43 42 41 35 26 21 15 12 15 18 18 18 16 13 7 10 13 10 4 1 358
46 49 49 37 36 37 32 28 24 28 35 11 7 7 0 14 35 40 43 43 38 32 37 38 34 27 23 16 8 1 1 5 5 5 6 3 356 348 346 342 341 329 331
43 47 43 35 34 35 24 21 28 28 22 7 19 5 356 4 34 34 36 37 31 25 28 26 24 22 16 10 4 358 352 352 350 355 358 353 347 343 335 333 323 326 319
44 48 45 36 31 34 29 24 29 24 19 20 25 18 347 335 360 1 17 27 19 17 16 13 15 13 9 7 3 358 350 346 346 345 344 338 332 328 323 320 323 322 322
45 46 45 43 38 41 32 17 26 36 23 14 30 48 47 288 311 317 353 11 5 7 356 358 360 359 357 355 357 354 349 341 334 330 328 324 320 317 313 313 312 313 312
44 43 44 43 38 34 24 8 25 23 40 8 8 23 29 264 299 313 310 350 349 344 341 337 339 344 348 351 347 345 339 331 324 320 315 311 310 309 306 303 301 302 304
38 37 38 42 36 29 21 11 10 25 39 18 349 333 345 340 301 266 293 309 322 312 323 320 323 331 339 346 344 338 334 322 315 312 309 306 303 304 302 300 301 301 301
26 30 32 36 33 26 12 0 1 12 11 21 336 309 280 279 293 281 278 289 297 297 298 298 306 317 331 337 336 335 329 324 318 309 302 300 299 299 296 294 293 293 294
0 1 17 21 19 10 1 3 1 337 319 279 260 263 265 263 264 273 278 285 292 295 284 272 274 301 320 331 326 326 325 321 316 311 304 298 296 296 294 292 289 286 287
277 328 9 12 5 359 353 357 348 329 329 290 291 278 274 273 267 262 269 280 292 292 277 271 268 281 317 322 317 317 316 313 311 309 305 298 295 293 291 289 287 285 283
308 5 7 357 347 349 342 341 328 314 309 299 292 285 272 270 269 267 263 258 259 280 281 278 276 271 309 308 308 311 307 302 302 302 300 299 292 288 284 283 283 282 280
261 323 327 322 327 338 329 333 315 307 315 308 299 294 288 278 269 266 264 262 253 255 270 272 275 279 294 297 298 303 299 297 297 296 294 294 291 284 283 282 280 279 278
241 276 284 292 300 305 306 306 304 300 298 304 300 294 292 286 277 266 263 260 258 254 265 276 278 281 278 282 294 293 293 290 287 288 289 287 287 286 282 281 281 278 276
253 269 275 283 288 293 292 285 287 294 283 286 290 290 291 293 285 278 268 261 259 255 258 272 281 277 273 272 278 283 292 289 287 285 285 284 282 283 283 280 280 277 274
266 287 292 280 285 289 285 278 270 273 268 269 274 276 280 285 287 283 277 271 266 267 259 264 277 276 273 272 276 282 284 284 286 284 283 281 282 282 284 282 280 281 277
236 265 285 283 284 287 285 277 274 272 270 271 273 273 274 272 276 280 281 274 271 269 262 261 273 276 273 269 267 280 288 282 287 289 284 283 283 282 282 283 280 280 279
271 275 284 291 289 283 277 276 272 274 273 279 280 278 281 283 283 284 284 282 280 273 271 266 271 280 279 281 278 279 284 288 282 275 277 279 279 275 276 277 276 275 276
284 283 278 282 289 292 295 295 294 283 280 282 287 289 289 290 290 293 294 293 291 286 283 277 273 272 276 277 279 281 282 286 285 262 270 279 273 270 272 270 274 274 274
285 286 285 283 285 290 299 299 298 297 285 282 284 290 296 298 302 298 294 295 295 290 284 280 277 272 272 272 274 276 273 275 277 279 281 281 273 270 273 273 276 275 273
285 287 291 289 291 297 306 307 306 302 287 279 277 278 281 288 289 292 290 291 287 286 281 277 269 270 269 266 263 268 272 277 277 270 266 275 276 273 276 271 272 271 270
299 294 295 293 297 302 310 309 309 298 289 283 281 281 284 281 290 296 295 291 293 292 292 284 281 284 286 288 288 284 280 279 283 279 257 262 279 286 278 268 265 266 268
290 300 305 302 293 294 306 311 308 294 289 291 288 286 289 292 296 297 292 287 290 292 294 297 295 294 291 289 287 275 267 271 278 282 264 260 277 293 285 263 253 261 269
Height
1533 1533 1533 1533 1533 1533 1533 1533 1533 1533 1533 1534 1534 1535 1535 1536 1536 1536 1537 1537 1538 1538 1539 1539 1539 1540 1540 1541 1541 1541 1542 1542 1542 1542 1542 1543 1543 1544 1544 1545 1545 1546 1546
1532 1531 1532 1532 1532 1532 1531 1531 1531 1531 1532 1532 1532 1533 1533 1534 1534 1534 1535 1535 1536 1536 1537 1537 1537 1538 1538 1539 1539 1539 1540 1540 1540 1541 1541 1541 1542 1542 1542 1543 1543 1544 1544
1531 1531 1530 1530 1530 1530 1530 1530 1530 1529 1530 1530 1531 1531 1531 1531 1532 1532 1533 1533 1533 1534 1534 1535 1535 1536 1536 1536 1537 1537 1538 1538 1538 1539 1539 1539 1539 1540 1540 1541 1541 1542 1542
1530 1529 1529 1529 1529 1529 1528 1528 1528 1528 1528 1528 1528 1529 1529 1529 1530 1530 1530 1531 1531 1531 1532 1532 1533 1533 1534 1534 1534 1535 1535 1535 1536 1536 1537 1537 1537 1538 1538 1538 1539 1540 1540
1528 1528 1528 1527 1527 1527 1526 1526 1526 1525 1525 1526 1526 1526 1527 1527 1527 1528 1528 1528 1529 1529 1529 1530 1530 1531 1531 1531 1531 1532 1532 1533 1533 1534 1534 1534 1535 1535 1535 1536 1537 1537 1538
1527 1527 1526 1526 1526 1525 1525 1525 1524 1524 1524 1523 1524 1524 1524 1524 1525 1525 1525 1526 1526 1526 1527 1527 1527 1528 1528 1528 1529 1529 1529 1530 1530 1530 1531 1531 1532 1532 1533 1533 1534 1535 1535
1526 1525 1525 1525 1525 1524 1524 1523 1522 1522 1522 1521 1521 1521 1521 1522 1522 1522 1523 1523 1523 1524 1524 1524 1524 1525 1525 1525 1525 1526 1526 1527 1527 1527 1527 1528 1529 1529 1530 1530 1531 1531 1532
1524 1524 1524 1524 1523 1523 1522 1522 1521 1520 1520 1519 1519 1519 1518 1519 1519 1519 1520 1520 1520 1521 1521 1521 1521 1521 1522 1522 1522 1522 1523 1523 1523 1523 1524 1525 1525 1526 1526 1527 1527 1528 1528
1523 1522 1522 1522 1522 1521 1521 1520 1520 1519 1519 1519 1519 1519 1519 1517 1516 1516 1516 1517 1517 1517 1518 1518 1518 1518 1518 1518 1518 1518 1519 1519 1520 1520 1520 1521 1522 1522 1522 1523 1523 1524 1524
1521 1521 1520 1520 1520 1519 1519 1519 1519 1518 1517 1517 1517 1518 1518 1517 1516 1513 1513 1514 1514 1514 1514 1514 1514 1514 1514 1514 1514 1515 1515 1515 1515 1516 1516 1517 1517 1518 1518 1518 1519 1519 1519
1519 1519 1519 1518 1518 1517 1517 1517 1516 1516 1516 1515 1515 1515 1515 1515 1514 1513 1510 1510 1510 1510 1510 1510 1510 1510 1510 1510 1510 1510 1510 1511 1511 1511 1512 1512 1512 1513 1513 1513 1514 1514 1514
1516 1516 1516 1516 1515 1515 1515 1514 1514 1514 1513 1513 1513 1513 1512 1512 1511 1510 1508 1506 1505 1505 1506 1506 1507 1506 1506 1506 1506 1505 1506 1506 1506 1506 1507 1507 1507 1507 1507 1508 1508 1508 1509
1513 1514 1513 1513 1512 1512 1512 1512 1511 1511 1511 1510 1510 1510 1509 1509 1508 1508 1506 1503 1501 1500 1501 1501 1502 1502 1502 1502 1501 1501 1501 1501 1501 1501 1501 1501 1501 1501 1501 1502 1502 1502 1502
1511 1511 1511 1510 1510 1510 1509 1509 1508 1508 1507 1507 1506 1506 1506 1505 1505 1504 1503 1502 1498 1496 1495 1496 1497 1497 1497 1497 1496 1496 1495 1495 1495 1495 1495 1495 1495 1495 1495 1496 1496 1496 1496
1508 1508 1508 1507 1507 1506 1506 1506 1505 1504 1504 1503 1503 1502 1502 1501 1501 1500 1499 1498 1498 1493 1490 1490 1492 1492 1492 1492 1492 1490 1489 1489 1489 1489 1489 1489 1489 1489 1489 1489 1489 1490 1490
1505 1505 1504 1504 1503 1503 1503 1502 1501 1501 1500 1499 1499 1498 1498 1497 1496 1496 1495 1494 1493 1492 1488 1486 1486 1487 1487 1487 1486 1486 1484 1484 1483 1483 1483 1483 1483 1483 1483 1483 1483 1483 1483
1502 1501 1501 1500 1500 1499 1499 1498 1497 1497 1495 1495 1494 1494 1493 1493 1492 1491 1490 1489 1489 1487 1484 1481 1482 1482 1482 1481 1481 1480 1479 1478 1477 1477 1477 1476 1476 1476 1476 1476 1476 1476 1476
1499 1498 1498 1497 1496 1496 1495 1494 1493 1492 1491 1491 1490 1489 1489 1488 1487 1486 1485 1484 1483 1482 1480 1477 1476 1476 1476 1476 1475 1474 1473 1472 1471 1471 1470 1470 1470 1470 1470 1469 1469 1469 1469
1495 1495 1494 1493 1493 1492 1491 1490 1489 1488 1487 1487 1486 1485 1484 1483 1482 1482 1480 1479 1478 1477 1475 1473 1470 1471 1470 1470 1469 1468 1467 1466 1465 1464 1464 1463 1463 1463 1463 1462 1462 1461 1461
1492 1491 1491 1490 1489 1488 1487 1486 1485 1484 1483 1483 1482 1481 1480 1479 1478 1477 1475 1474 1473 1472 1470 1468 1466 1465 1465 1464 1464 1462 1460 1460 1459 1458 1457 1457 1456 1456 1455 1455 1454 1454 1453
1488 1488 1487 1486 1485 1484 1483 1482 1481 1480 1479 1478 1477 1477 1475 1474 1473 1472 1471 1470 1468 1467 1465 1463 1461 1460 1459 1459 1458 1456 1455 1453 1451 1451 1450 1449 1449 1448 1447 1446 1446 1445 1445
1485 1484 1483 1482 1481 1480 1480 1479 1478 1477 1475 1474 1473 1472 1471 1469 1468 1467 1466 1465 1464 1462 1460 1458 1456 1455 1453 1453 1452 1451 1449 1447 1444 1445 1443 1441 1442 1439 1439 1438 1437 1437 1437
1481 1480 1479 1479 1478 1477 1476 1475 1474 1473 1471 1470 1468 1467 1466 1465 1464 1462 1460 1459 1457 1456 1455 1453 1451 1449 1448 1447 1447 1445 1444 1442 1439 1438 1438 1433 1433 1431 1431 1430 1430 1429 1428
1477 1476 1475 1475 1474 1473 1472 1471 1470 1468 1467 1465 1464 1463 1461 1460 1458 1457 1454 1452 1450 1449 1448 1447 1445 1444 1443 1442 1441 1440 1437 1435 1433 1432 1432 1427 1425 1424 1422 1421 1421 1421 1420
1473 1473 1472 1471 1470 1469 1468 1467 1465 1464 1462 1461 1460 1458 1456 1455 1453 1452 1449 1447 1444 1443 1442 1440 1439 1438 1437 1436 1435 1434 1431 1429 1425 1424 1425 1422 1418 1416 1413 1412 1412 1411 1411
1470 1469 1468 1467 1466 1465 1464 1462 1461 1459 1457 1456 1454 1453 1452 1450 1448 1446 1444 1442 1439 1437 1435 1433 1432 1431 1430 1429 1428 1427 1425 1423 1420 1417 1417 1416 1413 1411 1405 1403 1403 1403 1402